{"data":{"norad_id":58582,"epoch":"2026-05-25T00:54:20.932128Z","epoch_age_seconds":61933,"freshness":"FRESH","line1":"1 58582U 23197A   26145.03774227 -.00000369  00000+0  00000+0 0  9997","line2":"2 58582   3.1702 312.8065 0013536 188.7620 237.8500  1.00271172  9092","mean_motion":1.00271172,"eccentricity":0.0013536,"inclination_deg":3.1702,"raan_deg":312.8065,"arg_perigee_deg":188.762,"mean_anomaly_deg":237.85,"bstar":0,"rev_number":909,"period_min":1436.105683496,"perigee_km":35729.692394424,"apogee_km":35843.841222014,"semimajor_km":42164.903808219,"source":"CELESTRAK","updated_at":"2026-05-25T13:38:14.143614Z"}}